This demonstration page uses our WeatherBlox Daily Observations layout. Learn more.

Left ArrowRight Arrow

Hourly Observations for January 11, 2016

Temp ( °F °C ) Dew Point ( °F °C ) Humidity (%) Winds ( mph kmh ) Pressure ( in mb ) Visibility ( mi km ) Precip ( " mm )
12:53 am 00:53 Clear 19 -7.2 11 -11.7 71 71 W 5 7 30.04 1017 10 16 0.00 0.00
1:53 am 01:53 Clear 23 -5 15 -9.4 72 72 W 9 15 30.01 1016 10 16 0.00 0.00
2:53 am 02:53 Mostly Cloudy 25 -3.9 17 -8.3 72 72 WNW 15 24 30.01 1016 10 16 0.00 0.00
3:53 am 03:53 Partly Cloudy 25 -3.9 18 -7.8 75 75 WNW 10 17 30.01 1016 10 16 0.00 0.00
4:53 am 04:53 Cloudy 26 -3.3 18 -7.8 71 71 W 8 13 29.99 1016 10 16 0.00 0.00
5:53 am 05:53 Cloudy 27 -2.8 19 -7.2 72 72 W 13 20 29.98 1015 10 16 0.00 0.00
6:53 am 06:53 Cloudy 28 -2.2 19 -7.2 69 69 W 14 22 29.98 1015 10 16 0.00 0.00
7:53 am 07:53 Cloudy 29 -1.7 20 -6.7 69 69 WNW 14 22 29.99 1016 10 16 0.00 0.00
8:53 am 08:53 Cloudy 30 -1.1 21 -6.1 69 69 WNW 10 17 30.01 1016 10 16 0.00 0.00
9:53 am 09:53 Cloudy 31 -0.6 23 -5 72 72 W 8 13 30.03 1017 10 16 0.00 0.00
10:53 am 10:53 Mostly Sunny 33 0.6 24 -4.4 70 70 WNW 9 15 30.03 1017 10 16 0.00 0.00
11:53 am 11:53 Cloudy 35 1.7 26 -3.3 70 70 NNW 14 22 30.03 1017 10 16 0.00 0.00
12:18 pm 12:18 Mostly Cloudy 36 2.2 26 -3.3 67 67 NW 10 17 30.00 1016 10 16 0.00 0.00
12:53 pm 12:53 Mostly Cloudy 36 2.2 26 -3.3 67 67 NW 10 17 29.98 1015 10 16 0.00 0.00
1:53 pm 13:53 Cloudy 36 2.2 27 -2.8 70 70 NW 12 19 29.96 1015 10 16 0.00 0.00
2:53 pm 14:53 Cloudy 38 3.3 28 -2.2 68 68 WNW 10 17 29.96 1014 10 16 0.00 0.00
3:53 pm 15:53 Sunny 38 3.3 27 -2.8 65 65 WNW 10 17 29.97 1015 10 16 0.00 0.00
4:53 pm 16:53 Partly Cloudy 36 2.2 26 -3.3 67 67 WNW 9 15 29.98 1015 10 16 0.00 0.00
5:53 pm 17:53 Clear 33 0.6 25 -3.9 72 72 W 6 9 29.99 1016 10 16 0.00 0.00
6:53 pm 18:53 Clear 32 0 24 -4.4 73 73 W 7 11 29.99 1016 10 16 0.00 0.00
7:53 pm 19:53 Clear 32 0 23 -5 69 69 W 8 13 30.00 1016 10 16 0.00 0.00
8:53 pm 20:53 Mostly Clear 33 0.6 23 -5 66 66 WNW 12 19 30.00 1016 10 16 0.00 0.00
9:53 pm 21:53 Mostly Clear 31 -0.6 23 -5 72 72 W 10 17 30.00 1016 10 16 0.00 0.00
10:53 pm 22:53 Clear 32 0 23 -5 69 69 WNW 13 20 30.01 1016 10 16 0.00 0.00
11:53 pm 23:53 Mostly Clear 31 -0.6 23 -5 72 72 WNW 12 19 30.03 1017 10 16 0.00 0.00

Powered by AerisWeather